Home   Weather   Perth   Past weeks
Flag for United Kingdom

Past Weather in Perth, Scotland, United Kingdom — Yesterday and Last 2 Weeks

Now
46 °F

Scattered clouds.


Feels Like: 42 °F
Forecast: 49 / 36 °F
Wind: 9 mph from West

Location: Dundee / Riverside

Current Time: Apr 3, 2020 at 7:30:28 pm

Latest Report: Apr 3, 2020 at 6:50 pm


Visibility: N/A

Pressure: 29.89 "Hg

Humidity: 82%

Dew Point: 41 °F

Location of PerthLocation

Past Weather in Perth — Graph

°F

Perth Temperature Yesterday

Maximum temperature yesterday: 52 °F (at 9:20 am)
Minimum temperature yesterday: 41 °F (at 8:50 pm)
Average temperature yesterday: 48 °F

High & Low Weather Summary for the Past Weeks

 TemperatureHumidityPressure
High55 °F (Mar 30, 3:20 pm)100% (Mar 26, 3:50 pm)30.95 "Hg (Mar 26, 3:50 pm)
Low32 °F (Mar 20, 6:20 am)40% (Mar 29, 2:20 pm)29.62 "Hg (Apr 2, 9:20 am)
Average47 °F70%30.32 "Hg
* Reported Mar 19 4:20 pm — Apr 3 5:50 pm, Perth. Weather by CustomWeather, © 2020

Note: Actual official high and low records may vary slightly from our data, if they occured in-between our weather recording intervals... More about our weather records

Perth Weather History for the Previous 24 Hours

Scroll right to see more
 ConditionsComfort  
Time TempWeatherWind HumidityBarometerVisibility
5:50 pm
Fri, Apr 3
46 °FSprinkles. Scattered clouds.10 mph82%29.89 "HgN/A
5:20 pm46 °FScattered clouds.13 mph76%29.89 "HgN/A
4:50 pm46 °FScattered clouds.12 mph76%29.89 "HgN/A
4:20 pm46 °FScattered clouds.12 mph71%29.89 "HgN/A
3:50 pm46 °FPassing clouds.12 mph76%29.89 "HgN/A
3:20 pm46 °FScattered clouds.15 mph76%29.89 "HgN/A
2:50 pm46 °FScattered clouds.15 mph76%29.89 "HgN/A
2:20 pm46 °FScattered clouds.17 mph71%29.89 "HgN/A
1:50 pm46 °FScattered clouds.18 mph71%29.89 "HgN/A
1:20 pm46 °FScattered clouds.18 mph71%29.89 "HgN/A
12:50 pm46 °FScattered clouds.18 mph66%29.89 "HgN/A
12:20 pm45 °FScattered clouds.15 mph71%29.89 "HgN/A
11:50 am45 °FSprinkles. Passing clouds.13 mph71%29.89 "HgN/A
11:20 am45 °FPassing clouds.12 mph71%29.89 "HgN/A
10:50 am45 °FPassing clouds.10 mph66%29.89 "HgN/A
10:20 am43 °FPassing clouds.14 mph76%29.89 "HgN/A
9:50 am43 °FPassing clouds.12 mph76%29.89 "HgN/A
9:20 am41 °FPassing clouds.14 mph81%29.86 "HgN/A
8:50 am41 °FPassing clouds.10 mph76%29.86 "HgN/A
8:50 pm
Thu, Apr 2
41 °FClear.8 mph53%29.86 "Hg10 mi
8:20 pm43 °FPassing clouds.7 mph49%29.83 "HgN/A
7:50 pm45 °FSunny.8 mph46%29.83 "Hg10 mi
7:20 pm45 °FSunny.12 mph42%29.80 "Hg10 mi
Weather by CustomWeather, © 2020

See weather overview

Advertising